Regional Weather Roundup
Issued by NWS

Home | Current Version | Previous Version | Graphics & Text | Print | Product List | Glossary On
Versions: 1 2 3 4 5 6 7 8 9 10 11 12 13 14 15 16 17 18 19 20 21 22 23 24 25 26 27
000
ASUS45 KPSR 220210
RWRAZ

ARIZONA HOURLY REGIONAL WEATHER ROUNDUP
NATIONAL WEATHER SERVICE PHOENIX AZ
700 PM MST WED FEB 21 2018

NOTE: FAIR INDICATES FEW OR NO CLOUDS BELOW 12,000 FEET WITH NO
SIGNIFICANT WEATHER AND/OR OBSTRUCTIONS TO VISIBILITY.

AZZ001>003-036-220300-
NORTHWEST ARIZONA

CITY           SKY/WX    TMP DP  RH WIND       PRES   REMARKS
BULLHEAD CITY  FAIR      55   3  12 CALM      30.09R
KINGMAN        CLOUDY    42   4  20 W9        30.05R
$$

AZZ004>008-015-016-018-220300-
NORTH CENTRAL ARIZONA

CITY           SKY/WX    TMP DP  RH WIND       PRES   REMARKS
GRAND CANYON   CLOUDY    27  11  51 CALM      29.99R
WILLIAMS       CLOUDY    28   0  29 SW5       29.97R WCI  23
PRESCOTT       MOCLDY    35   2  24 SW7       30.01R WCI  29
FLAGSTAFF      CLOUDY    27   9  46 SW9       29.98R WCI  18
PAYSON         CLOUDY    37  14  38 VRB6      30.02R WCI  33
PAGE           FAIR      38  11  32 CALM      30.01R
$$

AZZ009>014-017-220300-
NORTHEAST ARIZONA

CITY           SKY/WX    TMP DP  RH WIND       PRES   REMARKS
WINSLOW        CLOUDY    41  13  31 SW9       30.00R
SAINT JOHNS    FAIR      42  23  46 W6        29.97R
WINDOW ROCK    CLOUDY    37  19  48 S7        29.97R WCI  32
SHOW LOW       FAIR      36  23  60 SW16      30.00R WCI  26
$$

AZZ540-542>544-546-548-220300-
GREATER PHOENIX AREA

CITY           SKY/WX    TMP DP  RH WIND       PRES   REMARKS
PHOENIX        MOCLDY    57   8  14 W10       30.03S
BUCKEYE        CLOUDY    52  14  22 SW3       30.06R
LUKE AFB       MOCLDY    55  10  16 W6        30.03S
DEER VALLEY    FAIR      54   5  14 SW7       30.04R
SCOTTSDALE     FAIR      55  13  18 W3        30.05S
MESA-FALCON    MOCLDY    55  14  19 NW3       30.05R
MESA-GATEWAY   MOCLDY    55  14  19 NW7       30.05S
CHANDLER       MOCLDY    57  10  15 W5        30.05R
$$

AZZ539-553-220300-
SOUTHWEST MARICOPA COUNTY AND PINAL COUNTY

CITY           SKY/WX    TMP DP  RH WIND       PRES   REMARKS
CASA GRANDE      N/A     54  14  20 W8        30.06R
GILA BEND      MOCLDY    55   6  13 W5        30.05S
$$

AZZ503-504-507>509-220300-
SOUTHEAST ARIZONA

CITY           SKY/WX    TMP DP  RH WIND       PRES   REMARKS
TUCSON         FAIR      54  20  26 NW6       30.06R
DAVIS-MONTHAN  MOCLDY    53  19  27 NW13      30.04R
RYAN FIELD     CLEAR     54  23  30 NW5       30.06R
NOGALES        FAIR      48  24  39 W3        30.04R
SIERRA VISTA   FAIR      45  25  44 W7        30.05R
DOUGLAS        FAIR      51  19  28 SW14      30.02R
SAFFORD        FAIR      53  29  39 NW18      29.96R
$$

AZZ532-220300-
SOUTHWEST ARIZONA

CITY           SKY/WX    TMP DP  RH WIND       PRES   REMARKS
YUMA           MOCLDY    58  19  22 SW3       30.08R
$$

CAZ041-043-047-048-061-525>527-560>570-220300-
SOUTHERN CALIFORNIA

CITY           SKY/WX    TMP DP  RH WIND       PRES   REMARKS
DOWNTOWN L.A.  FAIR      55  27  34 VRB6      30.11R
L.A. AIRPORT   FAIR      55  33  43 W16       30.12S
SAN DIEGO      FAIR      56  39  53 NW8       30.17R
BURBANK        FAIR      55  23  28 W13       30.10R
ONTARIO        FAIR      53  27  36 SW8       30.10R
RIVERSIDE      FAIR      52  30  43 W13       30.11R
PALM SPRINGS   FAIR      60  20  21 NW10      30.09R
EL CENTRO NAS  MOCLDY    57  27  31 NW6       30.10R
IMPERIAL       FAIR      56  26  31 CALM      30.08R
BLYTHE         FAIR      54   9  16 E5        30.08R
NEEDLES        FAIR      54   4  13 CALM      30.08R
$$

NVZ020-UTZ003-220300-
SOUTHERN NEVADA-UTAH

CITY           SKY/WX    TMP DP  RH WIND       PRES   REMARKS
LAS VEGAS      MOCLDY    48   9  20 CALM      30.08R
SALT LAKE CITY FAIR      25  11  55 W5        30.09S WCI  19
$$

NMZ009-TXZ055-220300-
NEW MEXICO-WEST TEXAS

CITY           SKY/WX    TMP DP  RH WIND       PRES   REMARKS
ALBUQUERQUE    MOCLDY    43  24  47 E16       29.99S
EL PASO        FAIR      52  24  33 E7        30.01R
$$


........................KEY........................
SKY/WX - SKY CONDITION/WEATHER
TMP    - TEMPERATURE IN FAHRENHEIT
DP     - DEW POINT IN FAHRENHEIT
RH     - RELATIVE HUMIDITY IN PERCENT
WIND   - DIRECTION AND SPEED IN MILES PER HOUR (MPH)
VRB    - VARIABLE WIND DIRECTION
PRES   - MEAN SEA LEVEL PRESSURE IN INCHES OF MERCURY
         F - FALLING PRESSURE   R - RISING PRESSURE
         S - STEADY PRESSURE
VSB    - VISIBILITY IN MILES
HX     - HEAT INDEX IN FAHRENHEIT
WCI    - WIND CHILL INDEX IN FAHRENHEIT
TC     - TEMPERATURE IN CELSIUS WHICH IS ALSO KNOWN AS
         TEMPERATURE IN CENTIGRADE
AFB    - AIR FORCE BASE
         LUKE AFB IS LUKE AIR FORCE BASE
         DAVIS-MONTHAN IS DAVIS-MONTHAN AIR FORCE BASE
NAS    - NAVAL AIR STATION
         EL CENTRO NAS IS EL CENTRO NAVAL AIR STATION
N/A    - NOT AVAILABLE





USA.gov is the U.S. government's official web portal to all federal, state and local government web resources and services.